CW8398 Weather Reports


time (UTC)temp
C
wind
direction
speed
KPH
gust
KPH
rain 1hr
cm
rain 24hr
cm
rain mn
cm
humidity
%
barometer
mb
20260503021803 11 9 0.0 0.0 0.00 0.00 0.00 73 1005.4
20260503021303 11 9 0.0 1.6 0.00 0.00 0.00 72 1005.4
20260503020804 11 9 1.6 1.6 0.00 0.00 0.00 71 1004.8
20260503015803 11 9 0.0 1.6 0.00 0.00 0.00 70 1004.8
20260503015305 11 9 0.0 1.6 0.00 0.00 0.00 68 1004.8
20260503014804 11 9 0.0 1.6 0.00 0.00 0.00 68 1004.8
20260503014303 11 9 0.0 1.6 0.00 0.00 0.00 67 1004.8
20260503013803 11 9 0.0 1.6 0.00 0.00 0.00 67 1004.8
20260503013303 11 9 0.0 1.6 0.00 0.00 0.00 67 1004.8
20260503012804 11 359 0.0 3.2 0.00 0.00 0.00 67 1004.8
20260503012305 11 330 0.0 0.0 0.00 0.00 0.00 66 1004.8
20260503011804 11 330 0.0 1.6 0.00 0.00 0.00 66 1004.8
20260503010804 12 55 0.0 0.0 0.00 0.00 0.00 66 1004.8
20260503010303 12 55 0.0 0.0 0.00 0.00 0.00 66 1004.8
20260503005804 12 55 0.0 0.0 0.00 0.00 0.00 66 1004.8
20260503005304 12 55 0.0 1.6 0.00 0.00 0.00 66 1004.8
20260503004804 12 319 0.0 0.0 0.00 0.00 0.00 65 1004.8
20260503004303 12 319 0.0 0.0 0.00 0.00 0.00 65 1004.8
20260503003804 12 319 0.0 0.0 0.00 0.00 0.00 64 1004.8
20260503003304 13 319 0.0 0.0 0.00 0.00 0.00 65 1004.8
20260503002305 13 319 0.0 1.6 0.00 0.00 0.00 63 1004.8
20260503000304 14 0 1.6 4.8 0.00 0.00 0.00 61 1004.8
20260502235804 15 240 0.0 1.6 0.00 0.00 0.00 59 1004.8
20260502235304 15 212 1.6 4.8 0.00 0.00 0.00 58 1004.8
20260502234803 15 202 0.0 4.8 0.00 0.00 0.00 58 1004.8
20260502234303 15 243 1.6 4.8 0.00 0.00 0.00 57 1004.8
20260502233804 15 250 1.6 4.8 0.00 0.00 0.00 57 1005.4
20260502233304 15 237 1.6 4.8 0.00 0.00 0.00 56 1005.4
20260502231803 15 241 1.6 3.2 0.00 0.00 0.00 55 1005.4
20260502231303 15 267 1.6 4.8 0.00 0.00 0.00 55 1005.4
20260502230304 15 226 0.0 3.2 0.00 0.00 0.00 55 1005.4
20260502225804 15 222 1.6 4.8 0.00 0.00 0.00 55 1005.4
20260502225304 16 180 1.6 8.0 0.00 0.00 0.00 55 1005.4
20260502224803 16 172 1.6 3.2 0.00 0.00 0.00 55 1005.4
20260502224304 16 164 1.6 4.8 0.00 0.00 0.00 55 1005.4
20260502223804 16 169 0.0 4.8 0.00 0.00 0.00 55 1005.4
20260502223304 16 167 1.6 8.0 0.00 0.00 0.00 55 1005.4
20260502222803 16 193 1.6 8.0 0.00 0.00 0.00 55 1005.4
20260502220816 16 208 1.6 8.0 0.00 0.00 0.00 54 1005.4
20260502220304 16 199 1.6 4.8 0.00 0.00 0.00 54 1005.4
20260502215802 16 157 1.6 12.9 0.00 0.00 0.00 54 1005.4
20260502213301 16 216 3.2 9.7 0.00 0.00 0.00 57 1005.4
20260502212802 15 183 1.6 8.0 0.00 0.00 0.00 57 1005.4
20260502211802 15 199 3.2 11.3 0.00 0.00 0.00 59 1005.4
20260502211302 14 249 3.2 8.0 0.00 0.00 0.00 60 1005.4
20260502210802 14 239 4.8 19.3 0.00 0.00 0.00 62 1005.4
20260502210302 13 171 3.2 8.0 0.00 0.00 0.00 64 1005.1
20260502205802 13 204 4.8 9.7 0.00 0.00 0.00 66 1005.1
20260502205305 12 194 3.2 9.7 0.00 0.00 0.00 67 1005.1
20260502204302 12 186 3.2 9.7 0.00 0.00 0.00 70 1005.1
20260502203802 11 165 3.2 4.8 0.00 0.00 0.00 71 1005.1
20260502203301 11 163 3.2 4.8 0.00 0.00 0.00 71 1005.1
20260502202304 11 165 4.8 4.8 0.00 0.00 0.00 71 1005.1
20260502201801 11 163 3.2 4.8 0.00 0.00 0.00 72 1005.1
20260502201302 11 159 4.8 8.0 0.00 0.00 0.00 72 1005.1
20260502200802 11 159 4.8 8.0 0.00 0.00 0.00 72 1005.1
20260502200302 11 161 4.8 8.0 0.00 0.00 0.00 72 1005.1
20260502195802 11 159 4.8 8.0 0.00 0.00 0.00 71 1005.1
20260502194802 11 161 8.0 9.7 0.00 0.00 0.00 71 1005.1
20260502194302 12 159 8.0 9.7 0.00 0.00 0.00 70 1005.1
20260502193802 12 155 8.0 9.7 0.00 0.00 0.00 69 1005.1
20260502193302 12 163 4.8 9.7 0.00 0.00 0.00 68 1005.1
20260502192802 12 165 8.0 8.0 0.00 0.00 0.00 68 1005.1
20260502192305 12 157 6.4 8.0 0.00 0.00 0.00 67 1005.1
20260502190802 13 160 4.8 8.0 0.00 0.00 0.00 65 1005.1
20260502190302 13 163 8.0 8.0 0.00 0.00 0.00 65 1005.1
20260502185802 13 161 8.0 11.3 0.00 0.00 0.00 64 1005.1
20260502185305 13 159 6.4 9.7 0.00 0.00 0.00 64 1005.1
20260502184302 14 160 8.0 11.3 0.00 0.00 0.00 63 1005.1
20260502183802 14 159 4.8 8.0 0.00 0.00 0.00 62 1005.0
20260502183302 14 160 4.8 8.0 0.00 0.00 0.00 62 1005.0
20260502182802 15 166 4.8 8.0 0.00 0.00 0.00 61 1005.0
20260502182304 15 170 4.8 8.0 0.00 0.00 0.00 61 1005.0
20260502181802 15 169 4.8 11.3 0.00 0.00 0.00 60 1005.0
20260502180802 15 160 4.8 12.9 0.00 0.00 0.00 59 1005.0
20260502180302 15 175 4.8 11.3 0.00 0.00 0.00 59 1005.0
20260502170302 17 173 4.8 9.7 0.00 0.00 0.00 54 1005.1
20260502164302 17 172 4.8 11.3 0.00 0.00 0.00 53 1006.1
20260502163802 17 170 4.8 11.3 0.00 0.00 0.00 52 1006.1
20260502163302 18 158 6.4 11.3 0.00 0.00 0.00 51 1006.1
20260502162802 18 170 6.4 11.3 0.00 0.00 0.00 51 1006.1
20260502162304 18 158 4.8 12.9 0.00 0.00 0.00 50 1006.1
20260502161802 18 167 6.4 12.9 0.00 0.00 0.00 49 1006.1
20260502161302 19 164 3.2 8.0 0.00 0.00 0.00 48 1006.1
20260502160802 19 169 4.8 11.3 0.00 0.00 0.00 48 1006.1
20260502160302 19 168 3.2 11.3 0.00 0.00 0.00 48 1006.1
20260502152305 19 170 8.0 16.1 0.00 0.00 0.00 47 1006.6
20260502151802 19 157 9.7 19.3 0.00 0.00 0.00 47 1006.6
20260502151302 19 178 8.0 14.5 0.00 0.00 0.00 46 1006.6
20260502150803 19 167 9.7 19.3 0.00 0.00 0.00 47 1006.6
20260502150302 19 160 12.9 20.9 0.00 0.00 0.00 45 1007.4
20260502130302 21 177 8.0 22.5 0.00 0.00 0.00 41 1008.1
20260502123802 23 212 11.3 25.7 0.00 0.00 0.00 33 1008.5
20260502123302 23 206 9.7 25.7 0.00 0.00 0.00 33 1008.5
20260502122802 23 237 8.0 24.1 0.00 0.00 0.00 33 1008.5
20260502122305 23 203 3.2 22.5 0.00 0.00 0.00 34 1008.5
20260502121803 23 233 8.0 22.5 0.00 0.00 0.00 34 1008.5
20260502120802 23 184 6.4 22.5 0.00 0.00 0.00 34 1008.5
20260502120303 23 192 4.8 24.1 0.00 0.00 0.00 34 1008.5
20260502115305 23 197 8.0 19.3 0.00 0.00 0.00 34 1009.6
20260502114802 23 193 9.7 19.3 0.00 0.00 0.00 34 1009.6
20260502114303 22 262 9.7 29.0 0.00 0.00 0.00 33 1009.6
20260502113802 23 165 4.8 22.5 0.00 0.00 0.00 34 1009.6
20260502113302 23 208 8.0 22.5 0.00 0.00 0.00 34 1009.6
20260502112802 22 201 9.7 24.1 0.00 0.00 0.00 34 1009.6
20260502112305 22 266 9.7 20.9 0.00 0.00 0.00 34 1009.6
20260502111302 22 245 8.0 20.9 0.00 0.00 0.00 34 1009.6
20260502110302 22 208 9.7 19.3 0.00 0.00 0.00 34 1009.6
20260502105802 22 270 8.0 19.3 0.00 0.00 0.00 34 1009.6
20260502105305 22 246 11.3 22.5 0.00 0.00 0.00 34 1009.6
20260502104803 22 255 8.0 19.3 0.00 0.00 0.00 34 1009.6
20260502103803 21 286 9.7 32.2 0.00 0.00 0.00 33 1009.6
20260502102802 22 203 4.8 24.1 0.00 0.00 0.00 34 1009.9
20260502101803 21 239 8.0 22.5 0.00 0.00 0.00 34 1009.9
20260502101302 21 232 8.0 25.7 0.00 0.00 0.00 34 1009.9
20260502100802 21 215 9.7 25.7 0.00 0.00 0.00 35 1009.9
20260502091302 20 235 8.0 24.1 0.00 0.00 0.00 35 1010.8
20260502090803 19 207 6.4 25.7 0.00 0.00 0.00 35 1010.8
20260502090303 19 216 11.3 29.0 0.00 0.00 0.00 35 1010.8
20260502071302 16 222 9.7 22.5 0.00 0.00 0.00 42 1011.8
20260502070803 16 203 4.8 14.5 0.00 0.00 0.00 44 1011.8
20260502070303 16 181 6.4 20.9 0.00 0.00 0.00 44 1011.8
20260502065802 15 219 8.0 22.5 0.00 0.00 0.00 44 1011.8
20260502064802 15 174 4.8 19.3 0.00 0.00 0.00 46 1011.8
20260502064303 15 240 4.8 19.3 0.00 0.00 0.00 46 1011.8
20260502063802 15 183 4.8 16.1 0.00 0.00 0.00 47 1011.8
20260502063303 15 206 8.0 22.5 0.00 0.00 0.00 47 1011.8
20260502062305 14 220 3.2 19.3 0.00 0.00 0.00 47 1011.8
20260502061303 14 244 4.8 14.5 0.00 0.00 0.00 49 1011.9
20260502060802 14 245 6.4 14.5 0.00 0.00 0.00 48 1011.9
20260502055305 13 243 8.0 19.3 0.00 0.00 0.00 49 1012.0
20260502054303 13 219 4.8 19.3 0.00 0.00 0.00 50 1012.0
20260502053802 13 227 6.4 19.3 0.00 0.00 0.00 50 1012.0
20260502053303 13 195 6.4 14.5 0.00 0.00 0.00 50 1012.0
20260502052306 13 247 8.0 19.3 0.00 0.00 0.00 50 1012.0
20260502051303 13 191 4.8 16.1 0.00 0.00 0.00 51 1012.2
20260502050802 13 257 6.4 16.1 0.00 0.00 0.00 51 1012.2
20260502045802 13 227 9.7 19.3 0.00 0.00 0.00 52 1012.2
20260502044802 13 277 8.0 14.5 0.00 0.00 0.00 52 1012.2
20260502043803 12 252 4.8 16.1 0.00 0.00 0.00 53 1012.2
20260502043302 12 11 3.2 16.1 0.00 0.00 0.00 53 1012.2
20260502042305 12 176 3.2 8.0 0.00 0.00 0.00 53 1012.2
20260502041803 12 219 3.2 14.5 0.00 0.00 0.00 53 1012.2
20260502041303 12 253 4.8 12.9 0.00 0.00 0.00 53 1012.2
20260502040803 12 233 1.6 14.5 0.00 0.00 0.00 53 1012.3
20260502035803 12 212 6.4 16.1 0.00 0.00 0.00 53 1012.3
20260502035306 12 194 8.0 12.9 0.00 0.00 0.00 54 1012.3
20260502034803 12 143 3.2 8.0 0.00 0.00 0.00 54 1012.3
20260502034303 12 195 3.2 20.9 0.00 0.00 0.00 54 1012.3
20260502033802 12 270 4.8 12.9 0.00 0.00 0.00 54 1012.4
20260502033303 12 250 4.8 11.3 0.00 0.00 0.00 55 1012.4
20260502032305 12 169 3.2 14.5 0.00 0.00 0.00 55 1012.5
20260502031802 12 231 1.6 4.8 0.00 0.00 0.00 54 1012.6
20260502030802 12 243 3.2 12.9 0.00 0.00 0.00 55 1012.6
20260502030302 12 241 3.2 12.9 0.00 0.00 0.00 55 1012.6
20260502025802 12 281 3.2 8.0 0.00 0.00 0.00 55 1012.8
20260502025306 12 236 1.6 8.0 0.00 0.00 0.00 54 1012.8
20260502024803 12 258 3.2 11.3 0.00 0.00 0.00 54 1012.8
20260502024303 12 262 1.6 12.9 0.00 0.00 0.00 54 1012.8
20260502023803 12 268 4.8 12.9 0.00 0.00 0.00 54 1012.8
20260502022803 12 270 3.2 11.3 0.00 0.00 0.00 54 1012.9
20260502022306 12 276 3.2 16.1 0.00 0.00 0.00 54 1012.9